Monticello, KY

3:19 PM EST on December 05, 2019 (GMT -0500)
Wayne County

Weather History for KEKQ - September, 2019

Change the Weather History Date:

Saturday, September 14, 2019

  Actual Average Record
Temperature  
Mean Temperature 74 °F -  
Max Temperature 88 °F 82 °F 96 °F (1980)
Min Temperature 57 °F 58 °F 37 °F (1964)
Cooling Degree Days 9    
Growing Degree Days 24 (Base 50)    
Moisture  
Dew Point 63 °F    
Average Humidity 77    
Maximum Humidity 100    
Minimum Humidity 33    
Precipitation  
Precipitation 0.00 in - - ()
Sea Level Pressure  
Sea Level Pressure 30.22 in    
Wind  
Wind Speed 7 mph (NW)    
Max Wind Speed 17 mph    
Max Gust Speed 20 mph    
Visibility 9 miles    
Events      
Averages and records for this station are not official NWS values.
T = Trace of Precipitation, MM = Missing Value Source: NWS Daily Summary

Daily Weather History Graph

Daily Weather History Graph

Search for Another Location

Airport or City:

Astronomy

Sep. 14, 2019 Rise Set
Actual Time 6:20 AM CDT 6:48 PM CDT
Civil Twilight 5:54 AM CDT 7:14 PM CDT
Nautical Twilight 5:24 AM CDT 7:45 PM CDT
Astronomical Twilight 4:52 AM CDT 8:16 PM CDT
Moon 7:29 PM CDT (9/14) 6:34 AM CDT (9/14)
Length of Visible Light 13h 20m
Length of Day
12h 28m
Full, 100% of the Moon is Illuminated
Sep 14
Full
Sep 21
Last Quarter
Sep 28
New
Oct 5
First Quarter
Oct 13
Full

Hourly Weather History & Observations

Time (CDT) Temp. Heat Index Dew Point Humidity Pressure Visibility Wind Dir Wind Speed Gust Speed Precip Events Conditions
12:56 AM 70.0 °F - 69.1 °F 97% 30.17 in 10.0 mi West 9.2 mph - N/A   Clear
1:56 AM 69.1 °F - 69.1 °F 100% 30.17 in 9.0 mi Calm Calm - N/A   Clear
2:56 AM 68.0 °F - 68.0 °F 100% 30.19 in 9.0 mi Calm Calm - N/A   Clear
3:56 AM 68.0 °F - 68.0 °F 100% - 8.0 mi West 9.2 mph - N/A   Clear
4:56 AM 69.1 °F - 69.1 °F 100% 30.20 in 10.0 mi Calm Calm - N/A   Overcast
5:56 AM 69.1 °F - 69.1 °F 100% 30.22 in 8.0 mi Variable 6.9 mph - N/A   Scattered Clouds
6:56 AM 66.9 °F - 66.9 °F 100% 30.24 in 4.0 mi North - - N/A   Clear
7:56 AM 70.0 °F - 70.0 °F 100% 30.27 in 7.0 mi Calm Calm - N/A   Overcast
8:56 AM 75.0 °F - 66.9 °F 76% 30.27 in 10.0 mi North 11.5 mph - N/A   Clear
9:56 AM 78.1 °F - 64.9 °F 64% 30.27 in 10.0 mi Variable 5.8 mph - N/A   Clear
10:56 AM 82.0 °F 84.1 °F 66.0 °F 58% 30.26 in 10.0 mi North - - N/A   Clear
11:56 AM 84.0 °F 86.3 °F 66.0 °F 55% 30.25 in 9.0 mi Variable 4.6 mph 19.6 mph N/A   Clear
1:56 PM 88.0 °F 90.3 °F 66.0 °F 48% 30.20 in 10.0 mi West 15.0 mph 18.4 mph N/A   Clear
3:56 PM 88.0 °F 86.7 °F 57.0 °F 35% 30.17 in 10.0 mi North 17.3 mph - N/A   Clear
4:56 PM 87.1 °F 85.3 °F 55.0 °F 33% 30.17 in 10.0 mi Variable 6.9 mph - N/A   Clear
5:56 PM 84.0 °F 83.0 °F 55.9 °F 38% 30.18 in 10.0 mi North 15.0 mph - N/A   Clear
6:56 PM 72.0 °F - 60.1 °F 66% 30.20 in 10.0 mi NNE 13.8 mph - N/A   Clear
7:31 PM 69.8 °F - 59.0 °F 68% 30.23 in 10.0 mi WNW 5.8 mph - N/A   Clear
7:56 PM 69.1 °F - 59.0 °F 70% 30.22 in 10.0 mi WNW 5.8 mph - N/A   Clear
8:56 PM 64.9 °F - 59.0 °F 81% 30.22 in 10.0 mi West 6.9 mph - N/A   Clear
9:56 PM 63.0 °F - 57.9 °F 84% 30.22 in 10.0 mi NE 8.1 mph - N/A   Clear
10:56 PM 60.1 °F - 57.9 °F 93% 30.22 in 10.0 mi NNE 9.2 mph - N/A   Clear
11:56 PM 57.0 °F - 55.9 °F 96% 30.22 in 10.0 mi Calm Calm - N/A   Clear